This is the latest recevied weather packets stored in our database for station/object AD6NH. If no packets are shown the sender has not sent any weather packets the latest 1 day(s).
| Time | Temp. | Humidity | Pressure | Rain* | Wind** | Luminosity | Snow |
|---|---|---|---|---|---|---|---|
| 1777997222 | 17.22° C | 68% | 1015 hPa | 0 mm | 1.34 m/s, 189° | - | - |
| 1777996622 | 16.67° C | 70% | 1015 hPa | 0 mm | 1.34 m/s, 180° | - | - |
| 1777996022 | 17.22° C | 69% | 1015.1 hPa | 0 mm | 1.79 m/s, 167° | - | - |
| 1777995422 | 16.11° C | 74% | 1015.1 hPa | 0 mm | 1.79 m/s, 227° | - | - |
| 1777994822 | 15.56° C | 79% | 1015 hPa | 0 mm | 0.45 m/s, 190° | - | - |
| 1777994222 | 15.56° C | 79% | 1014.9 hPa | 0 mm | 0.45 m/s, 172° | - | - |
| 1777993622 | 15° C | 80% | 1015 hPa | 0 mm | 0.89 m/s, 257° | - | - |
| 1777993022 | 14.44° C | 82% | 1014.8 hPa | 0 mm | 0.45 m/s, 211° | - | - |
| 1777992422 | 14.44° C | 83% | 1014.8 hPa | 0 mm | 0 m/s | - | - |
| 1777991822 | 15° C | 82% | 1014.8 hPa | 0 mm | 0.45 m/s, 204° | - | - |
| 1777991222 | 13.89° C | 85% | 1014.7 hPa | 0 mm | 0 m/s | - | - |
| 1777990622 | 14.44° C | 86% | 1014.6 hPa | 0 mm | 0 m/s | - | - |
| 1777990022 | 12.78° C | 90% | 1014.6 hPa | 0 mm | 0.45 m/s, 204° | - | - |
| 1777989422 | 12.78° C | 91% | 1014.5 hPa | 0 mm | 0 m/s | - | - |
| 1777988822 | 12.78° C | 91% | 1014.6 hPa | 0 mm | 0 m/s | - | - |
| 1777988222 | 12.22° C | 91% | 1014.6 hPa | 0 mm | 0 m/s | - | - |
| 1777987622 | 12.22° C | 91% | 1014.4 hPa | 0 mm | 0 m/s | - | - |
| 1777987022 | 12.22° C | 91% | 1014.4 hPa | 0 mm | 0 m/s | - | - |
| 1777986422 | 12.22° C | 91% | 1014.2 hPa | 0 mm | 0.45 m/s, 183° | - | - |
| 1777985822 | 12.22° C | 90% | 1014.2 hPa | 0 mm | 0 m/s | - | - |
| 1777985222 | 12.22° C | 90% | 1014.3 hPa | 0 mm | 0 m/s | - | - |
| 1777984622 | 12.78° C | 89% | 1014.2 hPa | 0 mm | 0 m/s | - | - |
| 1777984022 | 12.78° C | 89% | 1014 hPa | 0 mm | 0 m/s | - | - |
| 1777983422 | 12.78° C | 88% | 1014.1 hPa | 0 mm | 0.45 m/s, 360° | - | - |
| 1777982822 | 12.78° C | 89% | 1014.2 hPa | 0 mm | 0.89 m/s, 322° | - | - |
* Rain latest hour (hover to see other rain measurements)
** Current wind speed in m/s (hover to see current wind gust speed)